Location: Kellogg
(38.0159°N, 90.0546°W)
Time: 13:20:02
(UTC+00:00)

ARIANE 6 FM1 Upper Stage - Pass Details

Date: 21 January 2026
Orbit: 522 x 609 km, 62.0° (Epoch: 8 February)

Event Time Altitude Azimuth Distance (km) Brightness Sun altitude
Rises 23:53:37 0° 185° (S) 2,728 6.5 -8.6°
Reaches altitude 10° 23:56:07 10° 172° (S) 1,821 5.4 -9.1°
Maximum altitude 23:59:30 25° 117° (ESE) 1,117 3.8 -9.7°
Enters shadow 00:02:03 14° 68° (ENE) 1,552 4.2 -10.2°
